Regional Weather Roundup
Issued by NWS

Home | Current Version | Previous Version | Graphics & Text | Print | Product List | Glossary Off
Versions: 1 2 3 4 5 6 7 8 9 10 11 12 13 14 15 16 17 18 19 20 21 22 23 24 25 26 27 28 29 30 31 32 33 34 35 36 37 38 39 40 41 42 43 44 45 46 47 48 49 50

834
ASUS43 KMPX 241201
RWRMN
WEATHER ROUNDUP FOR MINNESOTA
NATIONAL WEATHER SERVICE TWIN CITIES/CHANHASSEN MN
600 AM CST TUE JAN 24 2017


NOTE: "FAIR" INDICATES FEW OR NO CLOUDS BELOW 12,000 FEET WITH NO
SIGNIFICANT WEATHER AND/OR OBSTRUCTIONS TO VISIBILITY. N/A MEANS
CURRENT SKY AND/OR WEATHER CONDITIONS ARE NOT AVAILABLE.

MNZ060>063-068>070-241300-
   Twin Cities Metro

CITY           SKY/WX    TMP DP  RH WIND       PRES   REMARKS
TWIN CITIES    CLOUDY    32  25  75 N3        29.88R
6HR MIN TEMP:  32; 6HR MAX TEMP:  33;

ST PAUL        CLOUDY    31  28  89 N6        29.90R WCI  25
CRYSTAL        CLOUDY    32  24  72 NE3       29.87R
BLAINE         CLOUDY    34  28  80 CALM      29.88R
LAKEVILLE      CLOUDY    30  28  93 CALM      29.88R
EDEN PRAIRIE   CLOUDY    32  26  78 CALM      29.87R
6HR MIN TEMP:  32; 6HR MAX TEMP:  33;

SOUTH ST PAUL  CLOUDY    32  29  88 CALM      29.88S
LAKE ELMO      CLOUDY    32  30  93 CALM      29.88S
$$
MNZ001>005-007-008-013>017-022>024-027-028-241300-
   Northwest Minnesota

CITY           SKY/WX    TMP DP  RH WIND       PRES   REMARKS
BEMIDJI        CLOUDY    27  24  87 W6        29.85S WCI  20
HALLOCK        CLOUDY    27  25  93 SW9       29.84R WCI  17
ROSEAU         CLOUDY    25  21  86 S9        29.84R WCI  15
WARROAD        CLOUDY    25  19  80 S7        29.84S WCI  17
THIEF RVR FALL CLOUDY    23  20  88 SW8       29.87S WCI  14
CROOKSTON      CLOUDY    25  21  86 W13       29.89S WCI  13
FOSSTON        CLOUDY    23  21  93 W5        29.87R WCI  17
DETROIT LAKES  CLOUDY    30  27  86 NW3       29.87S
MOORHEAD       CLOUDY    30  25  80 W5        29.89R WCI  25
PARK RAPIDS    CLOUDY    28  21  75 W7        29.85R WCI  21
MAHNOMEN       CLOUDY    27  25  90 NW7       29.86R WCI  20
$$
MNZ006-009>011-018-025>026-241300-
   North Central Minnesota

CITY           SKY/WX    TMP DP  RH WIND       PRES   REMARKS
BAUDETTE       CLOUDY    24  20  84 SW7       29.84R WCI  16
FLAG ISLAND    CLOUDY    25  21  86 S9        29.82S WCI  15
INTL FALLS     CLOUDY    28  22  78 SW6       29.84R WCI  22
6HR MIN TEMP:  28; 6HR MAX TEMP:  29;

WASKISH        CLOUDY    28  25  86 W9        29.85S WCI  20
BIG FORK       CLOUDY    28  25  86 CALM      29.84R
LONGVILLE      CLOUDY    28  25  86 CALM      29.85R
GRAND RAPIDS   CLOUDY    29  25  85 W5        29.85S WCI  24
CRANE LAKE     CLOUDY    28  27  93 CALM      29.85S
ORR            CLOUDY    28  23  80 CALM      29.81R
COOK           CLOUDY    28  25  86 CALM      29.83S
WALKER         CLOUDY    27  22  84 NW3       29.85S
$$
MNZ012-019>021-037-241300-
   Northeast Minnesota

CITY           SKY/WX    TMP DP  RH WIND       PRES   REMARKS
DULUTH         CLOUDY    31  25  78 NW5       29.82S WCI  26
6HR MIN TEMP:  31; 6HR MAX TEMP:  32; 6HR PCP: TRACE;

ELY            CLOUDY    30  28  93 CALM      29.82R
HIBBING        CLOUDY    29  25  85 W3        29.83R
EVELETH        CLOUDY    32  26  78 CALM      29.83S
DULUTH HARBOR  CLOUDY    34  28  80 NW8       29.87R WCI  27
TWO HARBORS    CLOUDY    34  28  80 CALM      29.82S
SILVER BAY     CLOUDY    34  30  86 CALM      29.82R
GRAND MARAIS     N/A     35  33  92 CALM      29.82S
G MARAIS ARPRT CLOUDY    30  28  93 CALM      29.79R
$$
MNZ029>031-032-039>041-046>048-054>057-064-241300-
   West Central Minnesota

CITY           SKY/WX    TMP DP  RH WIND       PRES   REMARKS
FERGUS FALLS   DRIZZLE   28  27  93 N3        29.91S
WHEATON        CLOUDY    30  28  93 CALM      29.90S
MORRIS         CLOUDY    30  28  93 CALM      29.86S
ALEXANDRIA     CLOUDY    30  25  81 CALM      29.86R
ELBOW LAKE     CLOUDY    30  29  99 NW3       29.88R FOG
WADENA         CLOUDY    28  25  86 CALM      29.85S
GLENWOOD       CLOUDY    28  27  93 CALM      29.87R
APPLETON       CLOUDY    32  28  86 CALM      29.87S
ORTONVILLE     CLOUDY    30  27  86 CALM      29.87S
MADISON        CLOUDY    34  28  80 E3        29.87S
WILLMAR        CLOUDY    30  27  86 CALM      29.88S
$$
MNZ033>034-036-042>043-049>051-058-059-241300-
   Central Minnesota

CITY           SKY/WX    TMP DP  RH WIND       PRES   REMARKS
ST CLOUD       CLOUDY    31  26  82 CALM      29.86S
6HR MIN TEMP:  30; 6HR MAX TEMP:  31;

SAUK CENTRE    CLOUDY    29  25  83 CALM      29.87R
PAYNESVILLE    CLOUDY    30  29  96 CALM      29.87R
AITKIN         CLOUDY    32  25  74 CALM      29.84R
PINE RIVER     CLOUDY    28  25  86 CALM      29.89R
BRAINERD       CLOUDY    30  24  78 CALM      29.85S
STAPLES        CLOUDY    28  25  86 NW3       29.86R
LONG PRAIRIE   CLOUDY    30  25  80 CALM      29.85F
LITTLE FALLS   CLOUDY    32  25  74 CALM      29.86F
LITCHFIELD     CLOUDY    30  27  86 CALM      29.87S
BUFFALO        CLOUDY    31  26  80 CALM      29.89R
MAPLE LAKE     CLOUDY    32  28  85 CALM      29.88R
HUTCHINSON     CLOUDY    32  28  86 CALM      29.88S
$$
MNZ037-044-045-052-053-241300-
   East Central Minnesota

CITY           SKY/WX    TMP DP  RH WIND       PRES   REMARKS
PRINCETON      CLOUDY    32  27  80 N7        29.88R WCI  26
MORA           CLOUDY    32  27  80 CALM      29.87S
CAMBRIDGE      CLOUDY    34  25  69 CALM      29.85S
RUSH CITY      CLOUDY    32  28  86 CALM      29.86S
MOOSE LAKE     CLOUDY    32  27  80 CALM      29.83S
HINCKLEY       CLOUDY    32  30  93 NW3       29.85S
CLOQUET        CLOUDY    30  27  86 CALM      29.83S
MCGREGOR       CLOUDY    32  27  80 CALM      29.84S
$$
MNZ071>073-080-081-089-090-097-098-241300-
   Southwest Minnesota

CITY           SKY/WX    TMP DP  RH WIND       PRES   REMARKS
MONTEVIDEO     CLOUDY    30  30 100 E3        29.89R
GRANITE FALLS  CLOUDY    32  29  87 NE3       29.88F
CANBY          CLOUDY    32  29  89 CALM      29.87S
MARSHALL       CLOUDY    31  28  89 E6        29.86S WCI  25
REDWOOD FALLS  CLOUDY    32  25  75 E5        29.87R WCI  27
OLIVIA         CLOUDY    32  28  86 CALM      29.87R
PIPESTONE      CLOUDY    30  30 100 E7        29.80S FOG     WCI  23
WINDOM         CLOUDY    30  28  93 E6        29.84S WCI  24
WORTHINGTON    CLOUDY    30  28  92 E10       29.82  WCI  21
JACKSON        CLOUDY    30  30 100 E7        29.84S FOG     WCI  23
TRACY          CLOUDY    32  29  91 E7        29.85R WCI  25
SLAYTON        CLOUDY    30  29  95 E8        29.83R WCI  22
$$
MNZ065>067-074>077-082>085-091>093-241300-
   South Central Minnesota

CITY           SKY/WX    TMP DP  RH WIND       PRES   REMARKS
MANKATO        CLOUDY    31  27  85 NE7       29.87F WCI  24
NEW ULM        CLOUDY    30  27  86 CALM      29.87S
ST JAMES       CLOUDY    30  28  93 CALM      29.88R
FAIRMONT       CLOUDY    31  28  89 NE6       29.87R WCI  25
GLENCOE        CLOUDY    32  30  92 CALM      29.87S
OWATONNA       CLOUDY    30  27  86 CALM      29.87S
WASECA         CLOUDY    32  28  86 CALM      29.88S
ALBERT LEA     CLOUDY    30  28  93 CALM      29.86S
$$
MNZ078>079-086>088-094>096-241300-
   Southeast Minnesota

CITY           SKY/WX    TMP DP  RH WIND       PRES   REMARKS
ROCHESTER      CLOUDY    30  27  88 NW5       29.86F WCI  25
6HR MIN TEMP:  29; 6HR MAX TEMP:  31;

RED WING       CLOUDY    34  27  75 CALM      29.87S
STANTON        CLOUDY    33  28  83 CALM      29.86S
DODGE CENTER   CLOUDY    28  27  93 MISG      29.86S
WINONA         CLOUDY    34  30  86 NW3       29.89S
AUSTIN         CLOUDY    30  27  86 CALM      29.86R
PRESTON        CLOUDY    29  26  87 NW7       29.86S WCI  22
$$
ABBREVIATIONS USED IN REMARKS
   TC - TEMPERATURES IN CELSIUS
  WCI - WIND CHILL INDEX
   HX - HEAT INDEX
  VSB - VISIBILITY
$$




USA.gov is the U.S. government's official web portal to all federal, state and local government web resources and services.